| time (UTC) | temp F | wind direction | speed MPH | gust MPH | rain 1hr in | rain 24hr in | rain mn in | humidity % | barometer mb |
| 20260506101537 | 50 | 123 | 0.0 | 0.0 | 0.00 | 0.09 | 0.02 | 1 | 1010.7 |
| 20260506100033 | 50 | 123 | 0.0 | 0.0 | 0.00 | 0.09 | 0.02 | 1 | 1010.9 |
| 20260506094529 | 49 | 123 | 0.0 | 0.0 | 0.01 | 0.09 | 0.02 | 1 | 1010.9 |
| 20260506093033 | 49 | 123 | 0.0 | 0.0 | 0.01 | 0.09 | 0.02 | 1 | 1011.1 |
| 20260506091524 | 48 | 123 | 0.0 | 0.0 | 0.01 | 0.09 | 0.02 | 1 | 1011.4 |
| 20260506090022 | 49 | 123 | 0.0 | 0.0 | 0.01 | 0.09 | 0.02 | 1 | 1011.3 |
| 20260506084530 | 48 | 123 | 0.0 | 0.0 | 0.00 | 0.08 | 0.01 | 1 | 1011.3 |
| 20260506083006 | 48 | 124 | 0.0 | 0.0 | 0.01 | 0.08 | 0.01 | 1 | 1011.2 |
| 20260506081502 | 48 | 123 | 0.0 | 0.0 | 0.01 | 0.08 | 0.01 | 1 | 1011.1 |
| 20260506080108 | 48 | 333 | 0.0 | 4.0 | 0.01 | 0.08 | 0.01 | 1 | 1011.2 |
| 20260506073103 | 49 | 338 | 0.0 | 0.0 | 0.00 | 0.07 | 0.00 | 1 | 1011.1 |
| 20260506071545 | 48 | 315 | 0.0 | 0.0 | 0.00 | 0.07 | 0.00 | 1 | 1011.1 |
| 20260506061528 | 46 | 151 | 0.0 | 1.0 | 0.00 | 0.07 | 0.00 | 1 | 1011.5 |
| 20260506044501 | 44 | 233 | 0.0 | 0.0 | 0.00 | 0.07 | 0.00 | 1 | 1011.8 |
| 20260506043102 | 44 | 257 | 0.0 | 0.0 | 0.00 | 0.07 | 0.00 | 1 | 1012.1 |
| 20260506041556 | 44 | 257 | 0.0 | 0.0 | 0.00 | 0.07 | 0.00 | 1 | 1012.0 |
| 20260506040048 | 44 | 257 | 0.0 | 0.0 | 0.00 | 0.07 | 0.00 | 1 | 1012.2 |
| 20260506034551 | 44 | 257 | 0.0 | 0.0 | 0.00 | 0.07 | 0.00 | 1 | 1012.5 |
| 20260506033039 | 44 | 282 | 0.0 | 0.0 | 0.00 | 0.07 | 0.00 | 1 | 1012.5 |
| 20260506031535 | 44 | 282 | 0.0 | 0.0 | 0.00 | 0.07 | 0.00 | 1 | 1012.4 |
| 20260506030030 | 44 | 282 | 0.0 | 0.0 | 0.00 | 0.07 | 0.00 | 1 | 1012.4 |
| 20260506024528 | 44 | 282 | 0.0 | 0.0 | 0.00 | 0.07 | 0.00 | 1 | 1012.1 |
| 20260506023022 | 45 | 281 | 0.0 | 0.0 | 0.00 | 0.07 | 0.00 | 1 | 1012.2 |
| 20260506021518 | 45 | 281 | 0.0 | 0.0 | 0.00 | 0.07 | 0.00 | 1 | 1012.6 |
| 20260506020013 | 45 | 281 | 0.0 | 0.0 | 0.00 | 0.07 | 0.00 | 1 | 1012.8 |
| 20260506014508 | 45 | 281 | 0.0 | 0.0 | 0.00 | 0.07 | 0.00 | 1 | 1013.0 |
| 20260506013004 | 45 | 281 | 0.0 | 0.0 | 0.00 | 0.07 | 0.00 | 1 | 1012.9 |
| 20260506011624 | 45 | 281 | 0.0 | 0.0 | 0.00 | 0.07 | 0.00 | 1 | 1013.1 |
| 20260506010115 | 45 | 281 | 0.0 | 0.0 | 0.00 | 0.07 | 0.00 | 1 | 1013.1 |
| 20260506004552 | 45 | 281 | 0.0 | 0.0 | 0.00 | 0.07 | 0.00 | 1 | 1013.1 |
| 20260506003047 | 46 | 281 | 0.0 | 0.0 | 0.00 | 0.07 | 0.00 | 1 | 1012.9 |
| 20260506001544 | 46 | 281 | 0.0 | 0.0 | 0.00 | 0.07 | 0.00 | 1 | 1013.3 |
| 20260506000046 | 45 | 281 | 0.0 | 1.0 | 0.00 | 0.07 | 0.00 | 1 | 1013.1 |
| 20260505234534 | 46 | 281 | 0.0 | 0.0 | 0.00 | 0.07 | 0.00 | 1 | 1013.3 |
| 20260505233033 | 45 | 281 | 0.0 | 0.0 | 0.00 | 0.07 | 0.00 | 1 | 1013.3 |
| 20260505231536 | 46 | 281 | 0.0 | 0.0 | 0.00 | 0.07 | 0.00 | 1 | 1013.3 |
| 20260505230021 | 46 | 281 | 0.0 | 0.0 | 0.00 | 0.07 | 0.00 | 1 | 1013.3 |
| 20260505224517 | 47 | 281 | 0.0 | 0.0 | 0.00 | 0.07 | 0.00 | 1 | 1013.3 |
| 20260505223017 | 47 | 281 | 0.0 | 0.0 | 0.00 | 0.07 | 0.00 | 1 | 1013.4 |
| 20260505221509 | 47 | 281 | 0.0 | 0.0 | 0.00 | 0.07 | 0.00 | 1 | 1013.5 |
| 20260505220008 | 47 | 281 | 0.0 | 0.0 | 0.00 | 0.07 | 0.00 | 1 | 1013.7 |
| 20260505214508 | 48 | 281 | 0.0 | 0.0 | 0.00 | 0.07 | 0.07 | 1 | 1013.7 |
| 20260505213003 | 48 | 281 | 0.0 | 0.0 | 0.01 | 0.07 | 0.07 | 1 | 1013.8 |
| 20260505211600 | 48 | 281 | 0.0 | 0.0 | 0.01 | 0.07 | 0.07 | 1 | 1013.9 |
| 20260505210056 | 48 | 281 | 0.0 | 0.0 | 0.01 | 0.07 | 0.07 | 1 | 1014.0 |
| 20260505204557 | 48 | 281 | 0.0 | 0.0 | 0.02 | 0.07 | 0.07 | 1 | 1013.8 |
| 20260505203048 | 48 | 281 | 0.0 | 0.0 | 0.01 | 0.06 | 0.06 | 1 | 1014.0 |
| 20260505201547 | 48 | 281 | 0.0 | 0.0 | 0.02 | 0.06 | 0.06 | 1 | 1013.9 |
| 20260505200037 | 48 | 281 | 0.0 | 0.0 | 0.02 | 0.06 | 0.06 | 1 | 1013.9 |
| 20260505194534 | 48 | 281 | 0.0 | 0.0 | 0.02 | 0.06 | 0.06 | 1 | 1013.7 |
| 20260505193035 | 48 | 281 | 0.0 | 0.0 | 0.02 | 0.06 | 0.06 | 1 | 1013.6 |
| 20260505191526 | 49 | 279 | 0.0 | 0.0 | 0.02 | 0.05 | 0.05 | 1 | 1013.5 |
| 20260505190020 | 49 | 279 | 0.0 | 0.0 | 0.01 | 0.04 | 0.04 | 1 | 1013.3 |
| 20260505184516 | 49 | 264 | 0.0 | 1.0 | 0.00 | 0.03 | 0.03 | 1 | 1013.1 |
| 20260505183017 | 50 | 277 | 0.0 | 0.0 | 0.00 | 0.03 | 0.03 | 1 | 1012.9 |
| 20260505181508 | 50 | 99 | 0.0 | 0.0 | 0.00 | 0.03 | 0.03 | 1 | 1012.7 |
| 20260505180002 | 51 | 99 | 0.0 | 0.0 | 0.00 | 0.03 | 0.03 | 1 | 1012.5 |
| 20260505174558 | 51 | 99 | 0.0 | 0.0 | 0.00 | 0.03 | 0.03 | 1 | 1012.5 |
| 20260505173054 | 51 | 99 | 0.0 | 0.0 | 0.00 | 0.03 | 0.03 | 1 | 1012.5 |
| 20260505171550 | 51 | 99 | 0.0 | 0.0 | 0.00 | 0.03 | 0.03 | 1 | 1012.7 |
| 20260505170046 | 51 | 99 | 0.0 | 0.0 | 0.00 | 0.03 | 0.03 | 1 | 1012.6 |
| 20260505164554 | 51 | 22 | 0.0 | 0.0 | 0.00 | 0.03 | 0.03 | 1 | 1012.7 |
| 20260505163037 | 51 | 22 | 0.0 | 0.0 | 0.00 | 0.03 | 0.03 | 1 | 1012.8 |
| 20260505161544 | 51 | 5 | 0.0 | 0.0 | 0.00 | 0.03 | 0.03 | 1 | 1012.8 |
| 20260505153019 | 51 | 5 | 0.0 | 0.0 | 0.00 | 0.03 | 0.03 | 1 | 1012.7 |
| 20260505151514 | 51 | 40 | 0.0 | 1.0 | 0.00 | 0.03 | 0.03 | 1 | 1012.7 |
| 20260505124549 | 49 | 333 | 0.0 | 0.0 | 0.01 | 0.02 | 0.02 | 1 | 1013.1 |
| 20260505123043 | 49 | 339 | 0.0 | 2.0 | 0.02 | 0.02 | 0.02 | 1 | 1013.2 |
| 20260505121537 | 49 | 306 | 0.0 | 2.0 | 0.02 | 0.02 | 0.02 | 1 | 1013.2 |
| 20260505120040 | 49 | 344 | 0.0 | 2.0 | 0.02 | 0.02 | 0.02 | 1 | 1013.1 |
| 20260505114526 | 50 | 321 | 0.0 | 3.0 | 0.02 | 0.02 | 0.02 | 1 | 1012.9 |
| 20260505113021 | 50 | 308 | 0.0 | 0.0 | 0.01 | 0.01 | 0.01 | 1 | 1012.7 |
| 20260505111517 | 50 | 304 | 0.0 | 0.0 | 0.00 | 0.00 | 0.00 | 1 | 1012.7 |